User: anonymous   Login
Location: Brno
(49.2000°N, 16.6330°E)
Time: 17:19:27
(UTC+02:00)
Language:

RESURS DK-1 - Orbit

View from above orbital plane
View from above orbital plane
View from above satellite
View from above satellite

Ground track
Ground track

The orbit data is extracted from the following two-line orbital elements,

1 29228U 06021A   15185.42451538 -.00000894  00000-0 -61445-4 0  9991
2 29228 069.9375 113.2715 0005269 318.2617 153.1652 15.01525769500935
Epoch (UTC): 04 July 2015 10:11:18
Eccentricity: 0.0005269
inclination: 69.9375°
perigee height: 558 km
apogee height: 566 km
right ascension of ascending node: 113.2715°
argument of perigee: 318.2617°
revolutions per day: 15.01525769
mean anomaly at epoch: 153.1652°
orbit number at epoch: 50093

The dashed part of the orbit path shows where the satellite is in the earth's shadow,  

DLR